User: anonymous   Login
Location: Gleizolles
(44.4833°N, 6.7667°E)
Time: 15:19:32
(UTC+00:00)
Language:

CUBEBUG 2 - Orbit

View from above orbital plane
View from above orbital plane
View from above satellite
View from above satellite

Ground track
Ground track

The orbit data is extracted from the following two-line orbital elements,

1 39440U 13066AA  24194.06559135  .00004023  00000-0  47404-3 0  9991
2 39440  97.8132 137.2038 0069134 191.4103 168.5548 14.83614940573224
Epoch (UTC): 12 July 2024 01:34:27
Eccentricity: 0.0069134
inclination: 97.8132°
perigee height: 569 km
apogee height: 666 km
right ascension of ascending node: 137.2038°
argument of perigee: 191.4103°
revolutions per day: 14.83614940
mean anomaly at epoch: 168.5548°
orbit number at epoch: 57322

The dashed part of the orbit path shows where the satellite is in the earth's shadow,  

DLR